www.pogodaiklimat.ru

Погода и климат >> Архив погоды >> Россия >> Чукотка >> Константиновская


ПОГОДА в Константиновской

  • Прогноз погоды в Константиновской
  • Монитор погоды в Константиновской
  • Климат города

АРХИВ ПОГОДЫ в Константиновской

Время (UTC), дата Ветер
(напр.,м/с)
 
Видим.   Явления Облачность Т
(С)
Тd
(С)
f
(%)
Тe
(С)
Тes
(С)
Комфортность P
(гПа)
Po
(гПа)
Тmin
(С)
Tmax
(С)
R
(мм)
S
(см)
06 17.03 ЮВ 1
{3}
50 км 3/3 600 м
[Sc Ci fib]
-5.4 -13.0 55 -7 -7 1016.3 1015.2
12 17.03 ЮЗ 1
{5}
50 км 3/3 600 м
[Sc]
-18.7 -21.3 80 -22 -22 1020.4 1019.2
15 17.03 Ю 1
{2}
50 км ясно -27.8 -30.9 75 -32 -32 опасность
обморожения
1022.0 1020.8
18 17.03 Ю 1
{2}
50 км 3/0
[Ci fib]
-29.2 -32.2 75 -33 -33 опасность
обморожения
1023.2 1022.0
21 17.03 ЮВ 1
{2}
50 км ясно -26.1 -28.5 80 -30 -29 1024.0 1022.8 -30.4 78
00 18.03 В 2
{3}
50 км 1/0
[Ci fib]
-12.1 -16.4 70 -17 -14 1022.7 1021.6
03 18.03 ЮВ 3
{6}
50 км 1/0
[Ci fib]
-8.6 -15.7 56 -14 -12 1021.1 1020.0
06 18.03 ЮВ 3
{7}
50 км ясно -7.9 -15.9 53 -13 -13 1019.1 1018.0
09 18.03 ЮВ 2
{5}
50 км 3/0
[Ci fib]
-11.9 -16.3 70 -16 -16 1018.0 1016.9 -7.7
12 18.03 В 1
{4}
50 км 8/0
[Ac trans]
-16.1 -18.7 80 -19 -19 1017.1 1016.0
15 18.03 штиль 0
{4}
50 км 9/4 600 м
[Sc Ac trans]
-16.8 -18.7 85 -17 -17 1017.1 1016.0
18 18.03 С 2
{4}
50 км 9/0
[Ac trans Ci fib]
-18.2 -20.1 85 -24 -24 1018.2 1017.0
21 18.03 СЗ 1
{2}
50 км 6/0
[Ac lent Ci fib]
-21.6 -23.4 85 -25 -24 1019.4 1018.2 -21.9 78
00 19.03 С 2
{4}
50 км 3/0
[Ci fib]
-17.0 -22.0 65 -22 -20 1020.7 1019.6
03 19.03 С 2
{5}
50 км 1/0
[Ci fib]
-14.4 -21.5 55 -19 -17 1021.4 1020.3
06 19.03 штиль 0
{3}
50 км ясно -14.6 -20.7 60 -15 -14 1021.8 1020.7
09 19.03 Ю 1
{2}
50 км ясно -26.7 -29.1 80 -30 -30 1022.7 1021.5 -13.0
12 19.03 ЮВ 2
{3}
50 км ясно -29.5 -32.6 74 -37 -37 опасность
обморожения
1022.7 1021.5
15 19.03 ЮВ 1
{2}
50 км ясно -32.1 -35.7 70 -36 -36 опасность
обморожения
1022.8 1021.6
18 19.03 ЮВ 2
{3}
50 км ясно -30.4 -32.7 80 -38 -38 опасность
обморожения
1022.8 1021.6
21 19.03 ЮВ 1
{2}
50 км 1/0
[Ci fib]
-25.3 -27.7 80 -29 -28 1022.8 1021.6 -33.1 78
00 20.03 ЮВ 2
{3}
50 км ясно -15.5 -20.6 65 -21 -18 1022.2 1021.1
03 20.03 ЮВ 2
{4}
50 км ясно -8.9 -17.5 50 -13 -10 1021.0 1019.9
06 20.03 ЮВ 1
{3}
50 км 1/0
[Ci fib]
-9.4 -17.0 54 -11 -11 1020.3 1019.2
09 20.03 Ю 1
{2}
50 км ясно -15.5 -25.5 42 -18 -17 1020.7 1019.5 -8.1
12 20.03 ЮВ 1
{3}
50 км 1/0
[Ci fib]
-23.7 -26.1 81 -27 -27 1020.5 1019.3
15 20.03 ЮВ 1
{3}
50 км 1/0
[Ci fib]
-30.2 -33.2 75 -34 -34 опасность
обморожения
1020.5 1019.3
18 20.03 ЮВ 1
{2}
50 км 1/0
[Ci fib]
-33.0 -36.7 69 -37 -37 опасность
обморожения
1020.3 1019.1
21 20.03 ЮВ 1
{2}
50 км 3/0
[Ci fib]
-23.1 -25.5 81 -26 -26 1020.9 1019.7 -33.6 78
00 21.03 ЮВ 1
{3}
50 км 6/0
[Ci fib]
-14.3 -19.4 65 -17 -14 1020.7 1019.6
03 21.03 ЮВ 1
{4}
50 км 6/0
[Ci fib]
-9.7 -18.2 50 -12 -9 1020.3 1019.2
06 21.03 ЮВ 2
{3}
50 км 8/0
[Ac trans Ci fib]
-9.4 -17.7 51 -14 -13 1019.9 1018.8
09 21.03 ЮВ 2
{3}
50 км 6/1 600 м
[Sc Ac lent Ci fib]
-18.3 -20.9 80 -24 -24 1020.0 1018.8 -8.9
12 21.03 Ю 1
{2}
50 км 9/5 600 м
[Sc Ac trans]
-19.4 -22.0 80 -22 -22 1020.4 1019.2
15 21.03 ЮВ 1
{3}
50 км 9/5 600 м
[Sc Ac trans]
-18.2 -20.8 80 -21 -21 1020.2 1019.0
18 21.03 Ю 1
{3}
10 км снежные кристаллы 10/10 600 м
[Sc]
-14.9 -17.6 80 -17 -17 1019.9 1018.8
21 21.03 Ю 1
{3}
10 км слабый снег 10/4 600 м
[Sc As op]
-13.4 -16.1 80 -16 -16 1020.2 1019.1 -21.0 0.0 78
00 22.03 ЮВ 2
{4}
10 км снежные кристаллы 10/3 600 м
[Sc Ac trans Cs]
-10.1 -12.9 80 -15 -13 1020.3 1020.0
03 22.03 Ю 2
{5}
50 км {снег} 6/0
[Ac trans Cc]
-5.8 -11.0 67 -10 -8 1020.0 1018.9
06 22.03 Ю 2
{6}
50 км {снег} 6/3 1000 м
[Sc Ac trans Ci fib]
-5.2 -12.1 58 -9 -9 1019.8 1018.7
12 22.03 Ю 1
{2}
10 км снежные кристаллы 10/0
[Ac trans Cs]
-15.0 -17.0 85 -18 -18 1020.8 1019.7
15 22.03 Ю 1
{3}
10 км снежные кристаллы 10/0
[Cs]
-12.6 -13.9 90 -15 -15 1020.5 1019.4
18 22.03 Ю 2
{4}
50 км {снег} 5/0
[Ac trans Ci fib]
-14.8 -16.8 85 -20 -20 1020.3 1019.2
21 22.03 Ю 2
{3}
50 км 8/0
[Ac trans Cc]
-15.0 -17.7 80 -20 -19 1020.6 1019.5 -19.0 0.0 78
00 23.03 Ю 1
{4}
50 км 9/0
[Ci]
-9.9 -15.8 62 -12 -9 1020.7 1019.6
03 23.03 Ю 1
{3}
50 км {снег} 10/0
[Cs]
-6.6 -12.7 62 -9 -6 1020.8 1019.7
06 23.03 СЗ 3
{7}
10 км слабый снег 10/0
[Ac trans Cs]
-7.3 -10.3 79 -13 -13 1021.7 1020.6
09 23.03 С 1
{5}
10 км снежные кристаллы 10/0
[Ac As]
-14.7 -16.7 85 -17 -17 1023.8 1022.7 -5.8 0.4
12 23.03 ЮЗ 1
{3}
50 км {снег} 10/0
[Cs]
-23.4 -25.9 80 -27 -27 1024.7 1023.5
15 23.03 Ю 1
{2}
10 км слабый снег 10/0
[As op]
-15.5 -17.4 85 -18 -18 1024.4 1023.3
18 23.03 штиль 0
{2}
50 км {снег} 10/6 600 м
[Sc Ac As]
-14.0 -16.0 85 -14 -14 1024.1 1023.0
21 23.03 Ю 1
{2}
50 км 1/0
[Ac trans]
-13.8 -15.8 85 -16 -15 1023.5 1022.4 -23.9 0.0 78
00 24.03 Ю 2
{4}
50 км 1/0
[Ac trans]
-8.8 -13.2 70 -13 -10 1022.2 1021.1
03 24.03 ЮВ 2
{4}
50 км 1/0
[Ci fib]
-7.8 -13.9 62 -12 -9 1020.5 1019.4

 

Местоположение метеостанции Константиновская (Чукотка, Россия): широта 68.15 долгота 161.10 высота над уровнем моря 8 м.

В архиве по умолчанию представлена погода в Константиновской за последнюю неделю. Архивные данные за месяц целиком и за предыдущие месяцы, начиная с января 2011 года, Вы можете получить, выбрав интересующий диапазон дат из раскрывающегося списка и нажав кнопку "Ввод!".

Внимание! Время в таблицах - всемирное. Для получения местного времени необходимо прибавить поправку, которая в Константиновской равна 12 ч.

Смотрите также архив погоды в соседних городах и на ближайших метеорологических станциях:

Погода в Анюйске (Чукотка, Россия) (28 км)
Погода в Черском (Якутия, Россия) (65 км)
Погода в Колымской (Якутия, Россия) (120 км)
Погода на Островном (Чукотка, Россия) (124 км)
Погода в Бухте Амбарчик (Чукотка, Россия) (170 км)
Погода в Билибино (Чукотка, Россия) (220 км)
Погода в Баимке (Чукотка, Россия) (224 км)
Погода в Раучуе (Чукотка, Россия) (264 км)
Погода в Андрюшкино (Якутия, Россия) (290 км)
Погода в Илирнее (Чукотка, Россия) (304 км)

Пояснения к столбцам:

Ветер - указаны скорость ветра в м/с - средняя за 10 мин, порывы в срок и между сроками (в фигурных скобках) и направление, откуда дует ветер: С - северный, СВ - северо-восточный, В - восточный, ЮВ - юго-восточный, Ю - южный, ЮЗ - юго-западный, З - западный, СЗ - северо-западный.
Видимость - горизонтальная дальность видимости в метрах или километрах. При видимости от 1 до 10 км при отсутствии осадков обычно наблюдается дымка, при ухудшении видимости до 1 км и менее - туман. В сухую погоду видимость может ухудшаться дымом, пылью или мглою.
Явления - указаны атмосферные явления, наблюдавшиеся в срок или в последний час перед сроком; фигурными скобками обозначены явления, наблюдавшиеся между сроками (за 1-3 часа до срока); квадратными скобками обозначены град или гололедные отложения с указанием их диаметра в мм.
Облачность - указаны через наклонную черту общая и нижняя облачность в баллах и высота нижней границы облаков в метрах; квадратными скобками обозначены формы облаков: Ci - перистые, Cs - перисто-слоистые, Cc - перисто-кучевые, Ac - высококучевые, As - высокослоистые, Sc - слоисто-кучевые, Ns - слоисто-дождевые, Cu - кучевые, Cb - кучево-дождевые. Подробнее классификацию облаков см. в Атласе облаков (PDF).
T - Температура воздуха - температура, измеренная на высоте 2 м над землей.
Td - Температура точки росы - температура, при понижении до которой содержащийся в воздухе водяной пар достигнет насыщения.
f - Относительная влажность воздуха - влажноcть воздуха, измеренная на высоте 2 м над землей.
Te - Эффективная температура - температура, которую ощущает одетый по сезону человек в тени. Характеристика душности погоды. При расчете учитывается влияние влажности воздуха и скорости ветра на теплоощущения человека.
Tes - Эффективная температура на солнце - температура, которую ощущает человек, с поправкой на солнечный нагрев. Характеристика знойности погоды. Зависит от высоты солнца над горизонтом, облачности и скорости ветра. Ночью, в пасмурную погоду, а также при ветре 12 м/с и более поправка равна нулю.
P - Атмосферное давление - приведенное к уровню моря атмосферное давление.
Po - Атмосферное давление - измеренное на уровне метеостанции атмосферное давление.
Tmin - Минимальная температура - минимум температуры воздуха на высоте 2 м над землей.
Tmax - Максимальная температура - максимум температуры воздуха на высоте 2 м над землей.
R - Количество осадков - Количество выпавших осадков, мм. При наведении курсора мыши на число - период времени, за который выпало указанное количество осадков.
S - Снежный покров - Высота снежного покрова, см. При наведении курсора мыши на число - состояние снежного покрова и степень покрытия местности в баллах.